TimePDT,TemperatureF,Dew PointF,Humidity,Sea Level PressureIn,VisibilityMPH,Wind Direction,Wind SpeedMPH,Gust SpeedMPH,PrecipitationIn,Events,Conditions,WindDirDegrees,DateUTC
12:15 AM,71.6,51.8,50,30.03,10.0,East,4.6,-,N/A,,Clear,100,2012-09-08 07:15:00
12:35 AM,71.6,50.0,46,30.04,10.0,ESE,4.6,-,N/A,,Clear,110,2012-09-08 07:35:00
1:15 AM,73.4,48.2,41,30.04,10.0,ESE,6.9,-,N/A,,Clear,120,2012-09-08 08:15:00
1:35 AM,71.6,48.2,43,30.03,10.0,East,6.9,-,N/A,,Clear,100,2012-09-08 08:35:00
1:55 AM,71.6,48.2,43,30.03,10.0,ESE,8.1,-,N/A,,Clear,110,2012-09-08 08:55:00
2:15 AM,71.6,50.0,46,30.03,10.0,East,8.1,-,N/A,,Clear,100,2012-09-08 09:15:00
2:35 AM,71.6,50.0,46,30.03,10.0,East,8.1,-,N/A,,Clear,90,2012-09-08 09:35:00
2:55 AM,71.6,51.8,50,30.03,10.0,East,8.1,-,N/A,,Clear,90,2012-09-08 09:55:00
3:15 AM,71.6,51.8,50,30.03,10.0,East,8.1,-,N/A,,Clear,100,2012-09-08 10:15:00
3:35 AM,71.6,51.8,50,30.03,10.0,East,6.9,-,N/A,,Clear,100,2012-09-08 10:35:00
3:55 AM,71.6,51.8,50,30.03,10.0,East,8.1,-,N/A,,Clear,90,2012-09-08 10:55:00
4:15 AM,71.6,51.8,50,30.03,10.0,East,9.2,-,N/A,,Clear,90,2012-09-08 11:15:00
4:35 AM,71.6,51.8,50,30.03,10.0,East,9.2,-,N/A,,Clear,90,2012-09-08 11:35:00
4:55 AM,71.6,51.8,50,30.03,10.0,East,8.1,-,N/A,,Clear,90,2012-09-08 11:55:00
5:15 AM,71.6,51.8,50,30.02,10.0,East,6.9,-,N/A,,Clear,100,2012-09-08 12:15:00
5:35 AM,71.6,51.8,50,30.02,10.0,East,5.8,-,N/A,,Clear,100,2012-09-08 12:35:00
5:55 AM,69.8,51.8,53,30.02,10.0,ESE,4.6,-,N/A,,Clear,110,2012-09-08 12:55:00
6:15 AM,69.8,51.8,53,30.03,10.0,East,6.9,-,N/A,,Clear,100,2012-09-08 13:15:00
6:35 AM,69.8,51.8,53,30.03,10.0,East,6.9,-,N/A,,Clear,100,2012-09-08 13:35:00
6:55 AM,69.8,51.8,53,30.03,10.0,East,8.1,-,N/A,,Clear,90,2012-09-08 13:55:00
7:35 AM,71.6,51.8,50,30.03,10.0,East,8.1,-,N/A,,Clear,90,2012-09-08 14:35:00
7:55 AM,73.4,51.8,47,30.04,10.0,ESE,6.9,-,N/A,,Clear,110,2012-09-08 14:55:00
8:15 AM,75.2,51.8,44,30.04,10.0,East,5.8,-,N/A,,Clear,100,2012-09-08 15:15:00
8:35 AM,77.0,51.8,41,30.04,10.0,ESE,8.1,-,N/A,,Clear,110,2012-09-08 15:35:00
8:55 AM,78.8,53.6,42,30.04,10.0,ESE,6.9,-,N/A,,Clear,110,2012-09-08 15:55:00
9:15 AM,80.6,53.6,39,30.04,10.0,Calm,Calm,-,N/A,,Clear,0,2012-09-08 16:15:00
9:35 AM,82.4,51.8,35,30.04,10.0,Calm,Calm,-,N/A,,Clear,0,2012-09-08 16:35:00
9:55 AM,84.2,53.6,35,30.05,10.0,Calm,Calm,-,N/A,,Clear,0,2012-09-08 16:55:00
10:15 AM,84.2,51.8,33,30.04,10.0,Calm,Calm,-,N/A,,Clear,0,2012-09-08 17:15:00
10:35 AM,84.2,53.6,35,30.04,10.0,Calm,Calm,-,N/A,,Clear,0,2012-09-08 17:35:00
10:55 AM,86.0,53.6,33,30.04,10.0,Calm,Calm,-,N/A,,Clear,0,2012-09-08 17:55:00
11:15 AM,87.8,53.6,31,30.03,10.0,WSW,3.5,-,N/A,,Clear,240,2012-09-08 18:15:00
11:35 AM,86.0,53.6,33,30.04,10.0,West,8.1,-,N/A,,Clear,260,2012-09-08 18:35:00
11:55 AM,86.0,53.6,33,30.04,10.0,WSW,6.9,-,N/A,,Clear,250,2012-09-08 18:55:00
12:15 PM,87.8,53.6,31,30.03,10.0,SW,5.8,-,N/A,,Clear,230,2012-09-08 19:15:00
12:35 PM,87.8,53.6,31,30.03,10.0,WSW,6.9,-,N/A,,Clear,240,2012-09-08 19:35:00
12:55 PM,89.6,50.0,26,30.03,10.0,WSW,6.9,-,N/A,,Clear,250,2012-09-08 19:55:00
1:15 PM,87.8,48.2,25,30.02,10.0,West,6.9,-,N/A,,Clear,260,2012-09-08 20:15:00
1:35 PM,87.8,50.0,27,30.02,10.0,West,8.1,-,N/A,,Clear,270,2012-09-08 20:35:00
1:55 PM,87.8,48.2,25,30.01,10.0,WSW,6.9,-,N/A,,Clear,240,2012-09-08 20:55:00
2:15 PM,89.6,48.2,24,30.01,10.0,West,8.1,-,N/A,,Clear,270,2012-09-08 21:15:00
2:35 PM,87.8,50.0,27,30.00,10.0,West,8.1,-,N/A,,Clear,260,2012-09-08 21:35:00
2:55 PM,89.6,51.8,27,29.99,10.0,West,4.6,-,N/A,,Clear,270,2012-09-08 21:55:00
3:15 PM,91.4,51.8,26,29.98,10.0,WSW,5.8,-,N/A,,Clear,240,2012-09-08 22:15:00
3:35 PM,89.6,51.8,27,29.97,10.0,West,6.9,-,N/A,,Clear,280,2012-09-08 22:35:00
3:55 PM,89.6,51.8,27,29.97,10.0,SW,4.6,-,N/A,,Clear,230,2012-09-08 22:55:00
4:15 PM,89.6,51.8,27,29.96,10.0,SSW,4.6,-,N/A,,Clear,200,2012-09-08 23:15:00
4:35 PM,89.6,51.8,27,29.96,10.0,Calm,Calm,-,N/A,,Clear,0,2012-09-08 23:35:00
4:55 PM,89.6,51.8,27,29.95,10.0,Calm,Calm,-,N/A,,Clear,0,2012-09-08 23:55:00
5:15 PM,89.6,51.8,27,29.95,10.0,SSW,4.6,-,N/A,,Clear,210,2012-09-09 00:15:00
5:35 PM,89.6,51.8,27,29.95,10.0,West,5.8,-,N/A,,Clear,260,2012-09-09 00:35:00
5:55 PM,89.6,51.8,27,29.95,10.0,WSW,8.1,-,N/A,,Clear,240,2012-09-09 00:55:00
6:15 PM,87.8,51.8,29,29.95,10.0,WSW,5.8,-,N/A,,Clear,250,2012-09-09 01:15:00
6:35 PM,87.8,50.0,27,29.95,10.0,Calm,Calm,-,N/A,,Clear,0,2012-09-09 01:35:00
6:55 PM,86.0,50.0,29,29.95,10.0,Calm,Calm,-,N/A,,Clear,0,2012-09-09 01:55:00
7:15 PM,84.2,48.2,29,29.94,10.0,Calm,Calm,-,N/A,,Clear,0,2012-09-09 02:15:00
7:35 PM,82.4,48.2,30,29.94,10.0,Calm,Calm,-,N/A,,Clear,0,2012-09-09 02:35:00
7:55 PM,80.6,48.2,32,29.95,10.0,Calm,Calm,-,N/A,,Clear,0,2012-09-09 02:55:00
8:15 PM,80.6,51.8,37,29.95,10.0,South,3.5,-,N/A,,Clear,170,2012-09-09 03:15:00
8:35 PM,80.6,48.2,32,29.95,10.0,South,4.6,-,N/A,,Clear,170,2012-09-09 03:35:00
8:55 PM,78.8,48.2,34,29.96,10.0,SSE,3.5,-,N/A,,Clear,160,2012-09-09 03:55:00
9:15 PM,77.0,48.2,36,29.97,10.0,Calm,Calm,-,N/A,,Clear,0,2012-09-09 04:15:00
9:35 PM,77.0,48.2,36,29.97,10.0,Calm,Calm,-,N/A,,Clear,0,2012-09-09 04:35:00
9:55 PM,75.2,46.4,36,29.97,10.0,SE,4.6,-,N/A,,Clear,140,2012-09-09 04:55:00
10:15 PM,75.2,46.4,36,29.96,10.0,SE,5.8,-,N/A,,Clear,140,2012-09-09 05:15:00
10:35 PM,75.2,46.4,36,29.96,10.0,SE,5.8,-,N/A,,Clear,140,2012-09-09 05:35:00
10:55 PM,73.4,46.4,38,29.96,10.0,Calm,Calm,-,N/A,,Clear,0,2012-09-09 05:55:00
11:15 PM,73.4,48.2,41,29.96,10.0,ESE,6.9,-,N/A,,Clear,120,2012-09-09 06:15:00
11:35 PM,75.2,48.2,38,29.96,10.0,SE,3.5,-,N/A,,Clear,130,2012-09-09 06:35:00
11:55 PM,73.4,48.2,41,29.96,10.0,ESE,4.6,-,N/A,,Clear,110,2012-09-09 06:55:00